Fayetteville, Georgia, United States (30214)
Lat: 33.45N, Lon: 84.45W
Wx Zone: GAZ054
Local Info
Past Weather Observations for Today

NOTE: This archive is for the closest National Weather Service station to Fayetteville. Information may differ from the station used for current weather conditions.

Click here for Long-term Archive

Time Weather Temperature Dewpoint Humidity Pressure Winds Precip Visibility
13:53
Clear
82°F / 28°C 68°F / 20°C 62% 30.06 in
(1018 mb)
Calm - 10SM
12:53
Partly Cloudy
81°F / 27°C 70°F / 21°C 70% 30.09 in
(1019 mb)
WNW 5.8 mph
(WNW 9 kph)
- 10SM
11:53
Clear
75°F / 24°C 70°F / 21°C 83% 30.09 in
(1019 mb)
Calm 0.00 in
(0.00 mm)
10SM
10:53
Overcast
Light Rain
70°F / 21°C 66°F / 19°C 88% 30.15 in
(1021 mb)
Variable 3.5 mph
(Variable 6 kph)
0.35 in
(8.89 mm)
10SM
10:43
Overcast
Light Rain
70°F / 21°C 66°F / 19°C 88% 30.15 in
(1021 mb)
WNW 5.8 mph
(WNW 9 kph)
0.35 in
(8.89 mm)
4SM
10:33
Overcast
Rain
70°F / 21°C 66°F / 19°C 88% 30.15 in
(1021 mb)
WNW 5.8 mph
(WNW 9 kph)
0.34 in
(8.64 mm)
1 3/4SM
10:18
Overcast
Light Rain
70°F / 21°C 66°F / 19°C 88% 30.15 in
(1021 mb)
SSW 4.6 mph
(SSW 7 kph)
0.28 in
(7.11 mm)
3SM
10:15
Overcast
Light Rain
70°F / 21°C 66°F / 19°C 88% 30.15 in
(1021 mb)
W 4.6 mph
(W 7 kph)
0.27 in
(6.86 mm)
1SM
10:09
Overcast
Heavy Rain
70°F / 21°C 66°F / 19°C 88% 30.15 in
(1021 mb)
Calm 0.27 in
(6.86 mm)
1/4SM
10:01
Overcast
Heavy Rain
70°F / 21°C 66°F / 19°C 88% 30.15 in
(1021 mb)
NW 6.9 mph
(NW 11 kph)
0.14 in
(3.56 mm)
3/4SM
09:53
Overcast
Rain
70°F / 21°C 66°F / 19°C 88% 30.15 in
(1021 mb)
SSW 4.6 mph
(SSW 7 kph)
0.48 in
(12.19 mm)
2 1/2SM
09:45
Overcast
Light Rain
70°F / 21°C 66°F / 19°C 88% 30.15 in
(1021 mb)
NW 8.1 mph
(NW 13 kph)
0.46 in
(11.68 mm)
3SM
09:39
Overcast
Rain
70°F / 21°C 66°F / 19°C 88% 30.15 in
(1021 mb)
WNW 8.1 mph
(WNW 13 kph)
0.45 in
(11.43 mm)
1SM
09:25
Overcast
Thunder Storms
70°F / 21°C 66°F / 19°C 88% 30.15 in
(1021 mb)
SSW 4.6 mph
(SSW 7 kph)
0.32 in
(8.13 mm)
3/4SM
09:10
Overcast
Heavy Rain
70°F / 21°C 68°F / 20°C 94% 30.15 in
(1021 mb)
W 6.9 mph
(W 11 kph)
0.10 in
(2.54 mm)
3/4SM
09:05
Overcast
Rain
70°F / 21°C 68°F / 20°C 94% 30.15 in
(1021 mb)
WNW 3.5 mph
(WNW 6 kph)
0.04 in
(1.02 mm)
1 3/4SM
08:53
Overcast
70°F / 21°C 68°F / 20°C 94% 30.12 in
(1020 mb)
SSE 5.8 mph
(SSE 9 kph)
0.05 in
(1.27 mm)
10SM
07:53
Overcast
Light Rain
70°F / 21°C 66°F / 19°C 88% 30.12 in
(1020 mb)
Calm 0.36 in
(9.14 mm)
8SM
07:47
Overcast
Light Rain
70°F / 21°C 66°F / 19°C 88% 30.12 in
(1020 mb)
Calm 0.36 in
(9.14 mm)
2SM
07:23
Overcast
Thunder Storms
70°F / 21°C 66°F / 19°C 88% 30.12 in
(1020 mb)
SW 4.6 mph
(SW 7 kph)
0.15 in
(3.81 mm)
3/4SM
07:18
Overcast
Heavy Rain
70°F / 21°C 66°F / 19°C 88% 30.12 in
(1020 mb)
W 8.1 mph
(W 13 kph)
0.07 in
(1.78 mm)
1 1/2SM
07:11
Overcast
Light Rain
70°F / 21°C 66°F / 19°C 88% 30.12 in
(1020 mb)
W 8.1 mph
(W 13 kph)
0.00 in
(0.00 mm)
10SM
06:53
Mostly Cloudy
Thunder Storms
70°F / 21°C 66°F / 19°C 88% 30.09 in
(1019 mb)
Calm - 10SM
05:53
Partly Cloudy
70°F / 21°C 66°F / 19°C 88% 30.06 in
(1018 mb)
Variable 4.6 mph
(Variable 7 kph)
- 10SM
04:53
Partly Cloudy
68°F / 20°C 66°F / 19°C 94% 30.06 in
(1018 mb)
Calm 0.00 in
(0.00 mm)
10SM
03:53
Partly Cloudy
Light Rain
68°F / 20°C 66°F / 19°C 94% 30.04 in
(1017 mb)
ENE 4.6 mph
(ENE 7 kph)
0.02 in
(0.51 mm)
10SM
02:53
Mostly Cloudy
Light Rain
68°F / 20°C 66°F / 19°C 94% 30.09 in
(1019 mb)
Calm 0.12 in
(3.05 mm)
6SM
02:06
Overcast
Rain
70°F / 21°C 66°F / 19°C 88% 30.09 in
(1019 mb)
Variable 5.8 mph
(Variable 9 kph)
0.03 in
(0.76 mm)
4SM
01:53
Overcast
Thunder Storms
70°F / 21°C 66°F / 19°C 88% 30.09 in
(1019 mb)
SSW 13.8 mph
(SSW 22 kph)
0.17 in
(4.32 mm)
10SM
01:42
Overcast
Thunder Storms
70°F / 21°C 66°F / 19°C 88% 30.09 in
(1019 mb)
SSW 6.9 mph
(SSW 11 kph)
0.16 in
(4.06 mm)
6SM
01:35
Mostly Cloudy
Thunder Storms
70°F / 21°C 66°F / 19°C 88% 30.06 in
(1018 mb)
SW 11.5 mph
(SW 19 kph)
0.15 in
(3.81 mm)
2 1/2SM
01:26
Mostly Cloudy
Thunder Storms
70°F / 21°C 66°F / 19°C 88% 30.06 in
(1018 mb)
SW 9.2 mph
(SW 15 kph)
0.14 in
(3.56 mm)
1 3/4SM
01:21
Partly Cloudy
Thunder Storms
70°F / 21°C 66°F / 19°C 88% 30.06 in
(1018 mb)
Calm - 10SM
00:53
Partly Cloudy
68°F / 20°C 66°F / 19°C 94% 30.04 in
(1017 mb)
SSE 3.5 mph
(SSE 6 kph)
0.01 in
(0.25 mm)
10SM
Time Weather Temperature Dewpoint Humidity Pressure Winds Precip Visibility


Weather for websites

WeatherForYou.com, LLC is not responsible for any damages or problems caused by this service. Current weather conditions are obtained from the closest station including government and personal stations which may have varying degrees of accuracy. Weather forecasts are derived from the NOAA NDFD. Like all things, this site belongs to Jesus Christ... He just trusts us to maintain it. If you have any questions or comments email webmaster@weatherforyou.com

Copyright © 2015, WeatherForYou.com LLC. All rights reserved.